Previsão horária em Plonno

Hoje, 27 Fevereiro, Sábado

Tempo Temperatura Precipitação Vento Pressão Humidade
00:00 +2°C° 0 mm 5 m/s 764 mmHg 87%
01:00 +1°C° 0 mm 5 m/s 764 mmHg 89%
02:00 +1°C° 0 mm 4 m/s 764 mmHg 91%
03:00 +1°C° 0 mm 4 m/s 764 mmHg 93%
04:00 0°C° 0 mm 4 m/s 764 mmHg 94%
05:00 +1°C° 0 mm 4 m/s 765 mmHg 94%
06:00 +1°C° 0 mm 4 m/s 765 mmHg 93%
07:00 +1°C° 0 mm 4 m/s 765 mmHg 93%
08:00 +1°C° 0 mm 4 m/s 766 mmHg 91%
09:00 +1°C° 0 mm 4 m/s 766 mmHg 89%
10:00 +3°C° 0 mm 4 m/s 767 mmHg 87%
11:00 +4°C° 0 mm 4 m/s 767 mmHg 83%
12:00 +5°C° 0 mm 4 m/s 767 mmHg 79%
13:00 +6°C° 0 mm 4 m/s 768 mmHg 75%
14:00 +6°C° 0 mm 4 m/s 768 mmHg 72%
15:00 +6°C° 0 mm 4 m/s 768 mmHg 70%
16:00 +8°C° 0 mm 3 m/s 767 mmHg 68%
17:00 +5°C° 0 mm 3 m/s 768 mmHg 73%
18:00 +4°C° 0 mm 3 m/s 768 mmHg 78%
19:00 +3°C° 0 mm 2 m/s 768 mmHg 83%
20:00 +3°C° 0 mm 2 m/s 768 mmHg 86%
21:00 +2°C° 0 mm 2 m/s 768 mmHg 89%
22:00 +2°C° 0 mm 2 m/s 768 mmHg 92%
23:00 +2°C° 0 mm 2 m/s 768 mmHg 94%

Amanhã, 28 Fevereiro, Domingo

Tempo Temperatura Precipitação Vento Pressão Humidade
00:00 +2°C° 0 mm 2 m/s 768 mmHg 95%
01:00 +1°C° 0 mm 2 m/s 768 mmHg 96%
02:00 0°C° 0 mm 3 m/s 768 mmHg 96%
03:00 0°C° 0 mm 3 m/s 767 mmHg 96%
04:00 0°C° 0 mm 3 m/s 767 mmHg 97%
05:00 0°C° 0 mm 3 m/s 767 mmHg 97%
06:00 0°C° 0 mm 3 m/s 767 mmHg 97%
07:00 -1°C° 0 mm 3 m/s 767 mmHg 97%
08:00 +1°C° 0 mm 3 m/s 767 mmHg 95%
09:00 +2°C° 0 mm 3 m/s 767 mmHg 93%
10:00 +3°C° 0 mm 3 m/s 767 mmHg 91%
11:00 +3°C° 0 mm 3 m/s 767 mmHg 89%
12:00 +4°C° 0 mm 3 m/s 767 mmHg 87%
13:00 +5°C° 0 mm 3 m/s 767 mmHg 86%
14:00 +5°C° 0 mm 3 m/s 767 mmHg 83%
15:00 +7°C° 0 mm 3 m/s 766 mmHg 80%
16:00 +8°C° 0 mm 3 m/s 766 mmHg 77%
17:00 +6°C° 0 mm 2 m/s 766 mmHg 81%
18:00 +5°C° 0 mm 2 m/s 767 mmHg 86%
19:00 +5°C° 0 mm 1 m/s 767 mmHg 91%
20:00 +4°C° 0 mm 1 m/s 767 mmHg 91%
21:00 +4°C° 0 mm 1 m/s 767 mmHg 92%
22:00 +2°C° 0 mm 0 m/s 767 mmHg 93%
23:00 +2°C° 0 mm 0 m/s 768 mmHg 93%

Depois de amanhã, 1 Março, Segunda-feira

Tempo Temperatura Precipitação Vento Pressão Humidade
00:00 +2°C° 0 mm 0 m/s 768 mmHg 93%
01:00 +2°C° 0 mm 0 m/s 768 mmHg 93%
02:00 +2°C° 0 mm 0 m/s 768 mmHg 93%
03:00 +1°C° 0 mm 0 m/s 768 mmHg 93%
04:00 +1°C° 0 mm 0 m/s 767 mmHg 93%
05:00 +1°C° 0 mm 0 m/s 768 mmHg 93%
06:00 +2°C° 0 mm 1 m/s 768 mmHg 93%
07:00 +2°C° 0 mm 1 m/s 768 mmHg 93%
08:00 +4°C° 0 mm 1 m/s 768 mmHg 88%
09:00 +5°C° 0 mm 1 m/s 768 mmHg 84%
10:00 +6°C° 0 mm 2 m/s 768 mmHg 79%
11:00 +7°C° 0 mm 2 m/s 768 mmHg 74%
12:00 +9°C° 0 mm 2 m/s 768 mmHg 69%
13:00 +10°C° 0 mm 2 m/s 768 mmHg 64%
14:00 +10°C° 0 mm 2 m/s 768 mmHg 65%
15:00 +10°C° 0 mm 2 m/s 767 mmHg 66%
16:00 +10°C° 0 mm 2 m/s 767 mmHg 67%
17:00 +9°C° 0 mm 2 m/s 767 mmHg 72%
18:00 +8°C° 0 mm 1 m/s 767 mmHg 77%
19:00 +7°C° 0 mm 1 m/s 767 mmHg 83%
20:00 +6°C° 0 mm 1 m/s 767 mmHg 84%
21:00 +6°C° 0 mm 1 m/s 767 mmHg 84%
22:00 +6°C° 0 mm 1 m/s 767 mmHg 85%
23:00 +5°C° 0 mm 1 m/s 767 mmHg 86%

2 Março, Terça-feira

Tempo Temperatura Precipitação Vento Pressão Humidade
00:00 +5°C° 0 mm 1 m/s 767 mmHg 86%
01:00 +5°C° 0 mm 1 m/s 767 mmHg 87%
02:00 +4°C° 0 mm 1 m/s 767 mmHg 87%
03:00 +4°C° 0 mm 1 m/s 767 mmHg 87%
04:00 +4°C° 0 mm 1 m/s 766 mmHg 88%
05:00 +4°C° 0 mm 1 m/s 766 mmHg 88%
06:00 +4°C° 0 mm 1 m/s 766 mmHg 88%
07:00 +3°C° 0 mm 1 m/s 766 mmHg 88%
08:00 +5°C° 0 mm 1 m/s 767 mmHg 82%
09:00 +7°C° 0 mm 1 m/s 767 mmHg 77%
10:00 +8°C° 0 mm 1 m/s 767 mmHg 71%
11:00 +9°C° 0 mm 1 m/s 767 mmHg 66%
12:00 +11°C° 0 mm 1 m/s 767 mmHg 62%
13:00 +12°C° 0 mm 1 m/s 767 mmHg 58%
14:00 +11°C° 0 mm 0 m/s 766 mmHg 58%
15:00 +11°C° 0 mm 0 m/s 766 mmHg 58%
16:00 +11°C° 0 mm 0 m/s 766 mmHg 58%
17:00 +10°C° 0 mm 0 m/s 766 mmHg 64%
18:00 +8°C° 0 mm 0 m/s 766 mmHg 69%
19:00 +7°C° 0 mm 0 m/s 765 mmHg 74%
20:00 +6°C° 0 mm 0 m/s 766 mmHg 76%
21:00 +7°C° 0 mm 1 m/s 766 mmHg 78%
22:00 +6°C° 0 mm 1 m/s 766 mmHg 80%
23:00 +6°C° 0 mm 1 m/s 766 mmHg 81%

3 Março, Quarta-feira

Tempo Temperatura Precipitação Vento Pressão Humidade
00:00 +5°C° 0 mm 1 m/s 765 mmHg 83%
01:00 +5°C° 0 mm 1 m/s 765 mmHg 84%
02:00 +5°C° 0 mm 1 m/s 765 mmHg 85%
03:00 +4°C° 0 mm 1 m/s 765 mmHg 85%
04:00 +4°C° 0 mm 1 m/s 765 mmHg 86%
05:00 +4°C° 0 mm 1 m/s 764 mmHg 86%
06:00 +4°C° 0 mm 1 m/s 764 mmHg 87%
07:00 +3°C° 0 mm 1 m/s 764 mmHg 88%
08:00 +5°C° 0 mm 1 m/s 764 mmHg 82%
09:00 +7°C° 0 mm 1 m/s 764 mmHg 76%
10:00 +8°C° 0 mm 1 m/s 764 mmHg 70%
11:00 +9°C° 0 mm 1 m/s 764 mmHg 65%
12:00 +11°C° 0 mm 1 m/s 764 mmHg 61%
13:00 +12°C° 0 mm 1 m/s 764 mmHg 56%
14:00 +12°C° 0 mm 1 m/s 763 mmHg 57%
15:00 +12°C° 0 mm 1 m/s 763 mmHg 58%
16:00 +12°C° 0 mm 1 m/s 762 mmHg 58%
17:00 +10°C° 0 mm 1 m/s 762 mmHg 64%
18:00 +9°C° 0 mm 1 m/s 762 mmHg 70%
19:00 +7°C° 0 mm 1 m/s 761 mmHg 75%
20:00 +7°C° 0 mm 1 m/s 761 mmHg 78%
21:00 +6°C° 0 mm 1 m/s 761 mmHg 81%
22:00 +5°C° 0 mm 2 m/s 761 mmHg 84%
23:00 +5°C° 0 mm 2 m/s 760 mmHg 85%

4 Março, Quinta-feira

Tempo Temperatura Precipitação Vento Pressão Humidade
00:00 +4°C° 0 mm 2 m/s 760 mmHg 87%
01:00 +4°C° 0 mm 2 m/s 759 mmHg 88%
02:00 +4°C° 0 mm 2 m/s 759 mmHg 89%
03:00 +4°C° 0 mm 2 m/s 758 mmHg 91%
04:00 +4°C° 0 mm 2 m/s 758 mmHg 92%
05:00 +3°C° 0 mm 2 m/s 757 mmHg 93%
06:00 +3°C° 0 mm 2 m/s 757 mmHg 93%
07:00 +3°C° 0 mm 2 m/s 756 mmHg 94%
08:00 +4°C° 0 mm 2 m/s 756 mmHg 92%
09:00 +5°C° 0 mm 2 m/s 756 mmHg 90%
10:00 +5°C° 0 mm 3 m/s 755 mmHg 88%
11:00 +5°C° 0.9 mm 3 m/s 755 mmHg 90%
12:00 +5°C° 0.9 mm 3 m/s 755 mmHg 93%
13:00 +6°C° 0.9 mm 2 m/s 755 mmHg 96%
14:00 +5°C° 0.8 mm 3 m/s 754 mmHg 95%
15:00 +5°C° 0.8 mm 3 m/s 754 mmHg 95%
16:00 +5°C° 0.8 mm 4 m/s 754 mmHg 94%
17:00 +4°C° 0.1 mm 4 m/s 754 mmHg 93%
18:00 +4°C° 0.1 mm 4 m/s 755 mmHg 93%
19:00 +3°C° 0.1 mm 4 m/s 755 mmHg 92%
20:00 +3°C° 0 mm 4 m/s 755 mmHg 91%
21:00 +3°C° 0 mm 4 m/s 756 mmHg 91%
22:00 +3°C° 0 mm 4 m/s 756 mmHg 90%
23:00 +1°C° 0 mm 4 m/s 757 mmHg 87%
Mostrar mais

Necessitamos do seu Consentimento

A Meteoprog e os seus Fornecedores de Serviços podem armazenar e aceder a dados pessoais como cookies, identificadores do dispositivo ou outras tecnologias semelhantes existentes no seu dispositivo e processar estes dados para personalizar conteúdos e anúncios, assim como funcionalidades nas redes sociais e análise de tráfego.

  • Armazenar e/ou aceder a informações no seu dispositivo

    Os cookies, identificadores do dispositivo ou outras informações podem ser armazenados ou acedidos no seu dispositivo, para os fins acima indicados.

  • Anúncios e conteúdos personalizados, medição de anúncios e conteúdos, dados sobre o público-alvo e desenvolvimento de produtos

    Os anúncios e os conteúdos podem ser personalizados com base num perfil. Podem ser adicionados dados adicionais para uma maior personalização dos anúncios e dos conteúdos. A eficácia dos anúncios e dos conteúdos pode ser medida. Podem ser obtidas informações sobre o público que visualizou os anúncios e os conteúdos. Estes dados podem ser usados para desenvolver ou melhorar sistemas, softwares ou a experiência do utilizador.

Ao clicar em "Eu concordo”, permitirá o uso de cookies, identificadores do dispositivo e web beacons mencionados ou outras tecnologias semelhantes. As configurações do navegador do seu dispositivo podem ser alteradas.

Para certos fins, podem ser invocados interesses legítimos ao invés de consentimento. Pode ler mais informação sobre este assunto na nossa Política de Privacidade e Cookies.